ADEOS

Satellite information

Favourite Embed

Satellite Type and Status

PAYLOADIN ORBIT

Key statistics

Satellite ADEOS at a glance.

Uptime

10489

Days in orbit

Revolutions

≈ 14.3

Per day

Orbit

SSO

Sun Synchronous Orbit

Inclination

98.9

Latest

Satellite identification and parameters

Extended collection of information and parameters for ADEOS.

Object identification

Identified? True

Debris? False

Object name: ADEOS

International designator: 1996-046A

Object number (NORAD): 24277

Object ID (CCSDS): 24277

Country: JAPAN (JPN)

Current information (Y/N): Y

RCS size: LARGE

Orbital parameters

Period: 100.683 minutes

Inclination: 98.8555 deg

SMA: 7169.075 km

Apoapsis: 791.704 km

Periapsis: 790.176 km

RAAN: 168.1905 deg

Eccentricy: 0.0001066

Argument of periapsis: 164.0808 deg

Mean anomaly: 196.0407 deg

Mean motion: 14.302373 rev/day

Mean motion (dot): 0.00000213 rev/day2

B* drag term: 0.0001001 1/REarth

Two-line elements (TLE)

Creation date: May 5, 2025, 2:11 a.m.

Reference frame: TEME

Reference center: EARTH

Epoch: May 4, 2025, 8:11 p.m. UTC

TLE line 0: 0 ADEOS

TLE line 1: 1 24277U 96046A 25124.84103590 .00000213 00000-0 10010-3 0 9992

TLE line 2: 2 24277 98.8555 168.1905 0001066 164.0808 196.0407 14.30237300497295

Live tracking on map

Real-time ground track for satellite ADEOS.

In-orbit conjunctions

A list of the most updated potential collisions computed for object ADEOS.

Target Orbit TCA Probability of collision Miss distance Type
CZ-6A DEB LEO 2025-03-01 17:48:46 0.0006217393 157.0 (m) DEBRIS
FENGYUN 1C DEB SSO 2025-01-21 21:29:02 0.000173287 408.0 (m) DEBRIS
IRIDIUM 33 DEB LEO 2024-12-04 04:44:17 0.0009017441 134.0 (m) DEBRIS
NOAA 8 SSO 2024-11-10 19:34:18 0.001625219 678.0 (m) PAYLOAD
FENGYUN 1C DEB SSO 2024-09-26 18:35:24 0.000108348 827.0 (m) DEBRIS

Associated space launch

Primary applications of ADEOS (Advanced Earth Observation Satellite), which has been renamed Midori after reaching orbit, include monitoring global environmental changes such as maritime meteorological conditions, atmospheric ozone, and gases that promote global warming. ADEOS was also expected to play a vital role in developing more sophisticated inter-orbit communications and platform technology for the satellite of tomorrow. ADEOS was launched by H-2 Launch Vehicle No.4 on August 1996 and provided a large volume of data containing valuable information about our environment atmosphere, ocean and land for about 10 months until it suddenly got out of control on 30 June 1997 because of the structural damage in its solar array paddle.

ADEOS was lifted into orbit during the mission ‘H-II | Midori’, on board a H-II space rocket.

The launch took place on Aug. 17, 1996, 1:53 a.m. from Yoshinobu Launch Complex LP-1.

For more information about the launch, click the button.

Launch to space H-II | Midori
H-II | Midori

Agency: N/A

Status: Launch Successful

Launch date: Aug. 17, 1996, 1:53 a.m. UTC

Rocket: H-II

Launch pad: Yoshinobu Launch Complex LP-1

Location: Tanegashima Space Center, Japan

...

Latest news about this satellite

There are no fresh news available about this satellite. Check back as we update our databases every day.


Newsletter sign-up

Weekly statistics, charts and insights to help you stay on top of the space industry.